www.pogodaiklimat.ru

Погода и климат >> Архив погоды >> Южная Африка >> Langebaanweg


ПОГОДА в Langebaanweg

  • Прогноз погоды в Langebaanweg
  • Монитор погоды в Langebaanweg
  • Климат города

АРХИВ ПОГОДЫ в Langebaanweg

Время (UTC), дата Ветер
(напр.,м/с)
 
Видим.   Явления Облачность Т
(С)
Тd
(С)
f
(%)
Тe
(С)
Тes
(С)
Комфортность P
(гПа)
Po
(гПа)
Тmin
(С)
Tmax
(С)
R
(мм)
R24
(мм)
S
(см)
03 9.07 штиль 0 н/о н/о +9.9 +4.7 70 +9 +9 856.0 1017.5 +9.9 +25.2
06 9.07 В 3 н/о н/о +9.4 +4.6 72 +7 +7 855.9 1017.8 +8.9
09 9.07 СВ 4 н/о н/о +20.6 +9.0 47 +22 +22 комфорт 862.4 1018.2 +8.9 +20.6
12 9.07 С 5 н/о н/о +24.2 +8.4 36 +25 +25 комфорт 863.6 1017.4 +8.9 +24.2
15 9.07 СЗ 3 н/о н/о +22.9 +8.7 40 +24 +24 комфорт 862.5 1016.9 +22.9 +24.6
18 9.07 ЮЗ 2 н/о н/о +14.7 +8.4 66 +14 +14 858.9 1017.9 +14.7 +24.6
21 9.07 СВ 2 н/о н/о +10.7 +6.4 75 +10 +10 857.3 1018.6 +10.7 +24.6
00 10.07 ЮЗ 2 н/о н/о +11.0 +7.3 78 +10 +10 857.1 1018.2 +8.9 +24.6
03 10.07 С 2 н/о н/о +8.8 +6.7 87 +7 +7 856.0 1018.3 +8.6 +24.6
06 10.07 штиль 0 н/о н/о +8.5 +6.1 85 +8 +8 857.1 1019.7 +7.9
09 10.07 ЮЗ 2 н/о н/о +15.0 +10.4 74 +15 +15 861.1 1020.3 +7.9 +15.0
12 10.07 СЗ 2 н/о н/о +21.9 +10.8 49 +24 +24 комфорт 863.1 1018.2 +7.9 +21.9
15 10.07 штиль 0 н/о н/о +22.4 +12.2 52 +25 +25 комфорт 862.4 1017.1 +21.9 +22.7
18 10.07 штиль 0 н/о н/о +15.0 +10.0 72 +15 +15 858.3 1017.0 +14.9 +22.7
21 10.07 штиль 0 н/о н/о +12.4 +8.8 79 +12 +12 856.3 1016.4 +12.3 +22.7
00 11.07 штиль 0 н/о н/о +11.0 +7.8 81 +10 +10 855.1 1015.8 +11.0 +22.7
03 11.07 СВ 2 н/о н/о +9.8 +6.8 82 +8 +8 852.4 1013.4 +9.4 +22.7
06 11.07 С 3 н/о н/о +12.3 +6.8 69 +11 +11 853.2 1012.8 +9.0
09 11.07 С 8 н/о н/о +20.0 +9.9 52 +21 +21 комфорт 857.7 1013.3 +9.0 +20.0
12 11.07 С 8 н/о н/о +22.9 +6.8 35 +24 +24 комфорт 857.2 1011.0 +9.0 +22.9
15 11.07 С 5 н/о н/о +20.8 +6.8 40 +22 +22 комфорт 854.7 1009.5 +20.8 +23.0
18 11.07 СВ 3 н/о н/о +13.2 +10.0 81 +12 +12 851.2 1010.0 +13.2 +23.0
21 11.07 С 6 н/о н/о +14.2 +10.8 80 +12 +12 851.8 1010.1 +12.7 +23.0
00 12.07 С 5 н/о н/о +14.0 +10.8 81 +12 +12 851.6 1010.0 +12.7 +23.0
03 12.07 С 6 н/о н/о +15.1 +11.1 77 +13 +13 852.4 1010.2 +12.7 +23.0
06 12.07 З 3 н/о н/о +13.1 +11.5 90 +12 +12 854.0 1013.3 +12.7
09 12.07 СЗ 2 н/о н/о +13.9 +10.3 79 +13 +13 855.7 1014.7 +12.4 +13.9
12 12.07 СЗ 3 н/о н/о +14.5 +9.3 71 +14 +14 855.3 1013.9 +12.4 +14.5
15 12.07 З 3 н/о н/о +13.6 +8.2 70 +13 +13 855.3 1014.5 +13.6 +14.7
18 12.07 З 2 н/о н/о +12.9 +7.6 70 +12 +12 856.2 1015.9 +12.8 +14.7
21 12.07 СВ 1 н/о н/о +10.8 +7.1 78 +11 +11 855.9 1016.9 +10.8 +14.7
00 13.07 СЗ 1 н/о н/о +9.0 +6.1 82 +8 +8 855.1 1017.1 +9.0 +14.7
03 13.07 С 2 н/о н/о +6.1 +3.6 84 +4 +4 853.5 1017.0 +6.1 +14.7
06 13.07 В 2 н/о н/о +4.3 +2.1 86 +1 +1 853.8 1018.5 +4.3
09 13.07 СЗ 2 н/о н/о +13.6 +8.0 69 +13 +13 860.0 1019.9 +4.2 +14.0
12 13.07 З 3 н/о н/о +15.2 +6.5 56 +15 +15 860.2 1019.1 +4.2 +15.6 0.4
15 13.07 З 2 н/о н/о +13.8 +9.6 76 +14 +14 860.0 1019.7 +12.6 +16.0
18 13.07 З 2 н/о н/о +11.7 +8.0 78 +11 +11 860.5 1021.7 +11.7 +16.0 1
21 13.07 В 1 н/о н/о +7.9 +5.8 87 +7 +7 859.7 1023.2 +7.2 +16.0
00 14.07 ЮЗ 1 н/о н/о +6.3 +4.9 91 +5 +5 860.2 1024.8 +6.1 +16.0 1
03 14.07 В 2 н/о н/о +6.5 +5.3 92 +5 +5 860.7 1025.3 +5.4 +16.0
06 14.07 Ю 2 н/о н/о +6.0 +4.6 91 +4 +4 862.0 1027.2 +5.4 1
09 14.07 Ю 5 н/о н/о +13.7 +6.6 62 +12 +12 867.9 1028.9 +5.4 +13.7
12 14.07 Ю 5 н/о н/о +15.7 +4.5 47 +15 +15 868.1 1027.8 +5.4 +15.8 0.2
15 14.07 Ю 5 н/о н/о +15.2 +6.3 55 +14 +14 867.7 1027.7 +15.2 +16.2
18 14.07 Ю 4 н/о н/о +10.7 +6.2 74 +8 +8 866.2 1029.0 +10.7 +16.2 0.2
21 14.07 Ю 6 н/о н/о +10.2 +5.6 73 +7 +7 866.3 1029.4 +9.4 +16.2
00 15.07 Ю 6 н/о н/о +10.2 +5.6 73 +7 +7 866.3 1029.4 +9.4 +16.2
03 15.07 Ю 4 н/о н/о +7.1 +3.1 76 +4 +4 864.1 1028.9 +6.9 +16.2
06 15.07 ЮВ 3 н/о н/о +7.3 +2.4 71 +5 +5 864.7 1029.5 +5.3 0.2
09 15.07 ЮВ 5 н/о н/о +15.6 +2.5 41 +15 +15 870.0 1030.0 +5.3 +15.6
12 15.07 ЮВ 4 н/о н/о +18.4 +1.9 33 +18 +18 869.0 1027.0 +5.3 +18.5
15 15.07 ЮВ 4 н/о н/о +18.2 +4.1 39 +18 +18 868.0 1026.1 +18.2 +18.9
18 15.07 Ю 4 н/о н/о +9.9 +4.0 67 +8 +8 863.1 1025.9 +9.9 +18.9
21 15.07 Ю 4 н/о н/о +10.4 +3.2 61 +8 +8 862.8 1025.2 +9.1 +18.9
00 16.07 ЮВ 3 н/о н/о +10.6 +2.7 58 +9 +9 862.0 1024.1 +9.1 +18.9

 

Местоположение метеостанции Langebaanweg (Южная Африка): широта -32.96 долгота 18.17 высота над уровнем моря 32 м.

В архиве по умолчанию представлена погода в Langebaanweg за последнюю неделю. Архивные данные за месяц целиком и за предыдущие месяцы, начиная с января 2011 года, Вы можете получить, выбрав интересующий диапазон дат из раскрывающегося списка и нажав кнопку "Ввод!".


*Определитесь, кто Вы:
робот инопланетянин человек

Внимание! Время в таблицах - всемирное. Для получения местного времени необходимо прибавить поправку, которая в Langebaanweg равна 2 ч.

Смотрите также архив погоды в соседних городах и на ближайших метеорологических станциях:

Погода в Langebaan (Южная Африка) (19 км)
Погода в Geelbek (Южная Африка) (27 км)
Погода в Cape Columbine (Южная Африка) (33 км)
Погода в Malmesbury (Южная Африка) (76 км)
Погода в Robben Island (Южная Африка) (95 км)
Погода в Lamberts Bay (Южная Африка) (105 км)
Погода в Table Bay (Южная Африка) (107 км)
Погода в Ysterplant (Южная Африка) (109 км)
Погода в Clanwilliam (Южная Африка) (110 км)
Погода в Cape Town (Южная Африка) (111 км)

Пояснения к столбцам:

Ветер - указаны скорость ветра в м/с - средняя за 10 мин, порывы в срок и между сроками (в фигурных скобках) и направление, откуда дует ветер: С - северный, СВ - северо-восточный, В - восточный, ЮВ - юго-восточный, Ю - южный, ЮЗ - юго-западный, З - западный, СЗ - северо-западный.
Видимость - горизонтальная дальность видимости в метрах или километрах. При видимости от 1 до 10 км при отсутствии осадков обычно наблюдается дымка, при ухудшении видимости до 1 км и менее - туман. В сухую погоду видимость может ухудшаться дымом, пылью или мглою.
Явления - указаны атмосферные явления, наблюдавшиеся в срок или в последний час перед сроком; фигурными скобками обозначены явления, наблюдавшиеся между сроками (за 1-3 часа до срока); квадратными скобками обозначены град или гололедные отложения с указанием их диаметра в мм.
Облачность - указаны через наклонную черту общая и нижняя облачность в баллах и высота нижней границы облаков в метрах; квадратными скобками обозначены формы облаков: Ci - перистые, Cs - перисто-слоистые, Cc - перисто-кучевые, Ac - высококучевые, As - высокослоистые, Sc - слоисто-кучевые, Ns - слоисто-дождевые, Cu - кучевые, Cb - кучево-дождевые. Подробнее классификацию облаков см. в Атласе облаков (PDF).
T - Температура воздуха - температура, измеренная на высоте 2 м над землей.
Td - Температура точки росы - температура, при понижении до которой содержащийся в воздухе водяной пар достигнет насыщения.
f - Относительная влажность воздуха - влажноcть воздуха, измеренная на высоте 2 м над землей.
Te - Эффективная температура - температура, которую ощущает одетый по сезону человек в тени. Характеристика душности погоды. При расчете учитывается влияние влажности воздуха и скорости ветра на теплоощущения человека.
Tes - Эффективная температура на солнце - температура, которую ощущает человек, с поправкой на солнечный нагрев. Характеристика знойности погоды. Зависит от высоты солнца над горизонтом, облачности и скорости ветра. Ночью, в пасмурную погоду, а также при ветре 12 м/с и более поправка равна нулю.
P - Атмосферное давление - приведенное к уровню моря атмосферное давление.
Po - Атмосферное давление - измеренное на уровне метеостанции атмосферное давление.
Tmin - Минимальная температура - минимум температуры воздуха на высоте 2 м над землей.
Tmax - Максимальная температура - максимум температуры воздуха на высоте 2 м над землей.
R - Количество осадков - Количество выпавших осадков за период времени, мм. При наведении курсора мыши на число - период времени, за который выпало указанное количество осадков.
R24 - Количество осадков - Количество выпавших осадков за 24 часа, мм.
S - Снежный покров - Высота снежного покрова, см. При наведении курсора мыши на число - состояние снежного покрова и степень покрытия местности в баллах.